Location: Fayetteville
(35.0530°N, 78.8790°W)
Time: 21:29:15
(UTC-05:00)

N. Korean satellite - Visible Passes

Search period start: 05 December 2021 00:00
Search period end: 15 December 2021 00:00
Orbit: 446 x 495 km, 97.3° (Epoch: 05 December)

Date Brightness Start Highest point End Pass type
(mag) Time Alt. Az. Time Alt. Az. Time Alt. Az.
05 Dec 6.4 05:41:26 10° N 05:44:44 55° WNW 05:48:02 10° SSW visible
05 Dec 9.9 17:46:51 10° SW 17:48:39 13° W 17:50:26 10° WNW visible
06 Dec 7.2 05:12:56 10° NNE 05:16:15 50° E 05:19:31 10° S visible
07 Dec 9.2 04:45:08 10° NE 04:47:38 19° E 04:50:07 10° SE visible
07 Dec 7.9 06:18:25 10° NNW 06:20:40 17° WNW 06:22:54 10° WSW visible
08 Dec 6.7 05:49:04 10° N 05:52:16 41° WNW 05:55:29 10° SSW visible
08 Dec 10.3 17:55:40 10° WSW 17:56:15 10° W 17:56:49 10° W visible
09 Dec 6.7 05:20:25 10° NNE 05:23:47 67° E 05:27:09 10° S visible
10 Dec 8.7 04:52:21 10° NE 04:55:10 24° E 04:58:00 10° SSE visible
10 Dec 8.2 06:26:21 10° NW 06:28:06 14° WNW 06:29:51 10° W visible
11 Dec 7.1 05:58:04 20° NNW 05:59:44 32° WNW 06:02:47 10° SW visible
12 Dec 6.3 05:29:42 31° NNE 05:31:14 89° E 05:34:38 10° SSW visible
12 Dec 9.5 17:32:27 10° SW 17:35:03 20° W 17:37:38 10° NW visible
13 Dec 8.2 05:01:14 22° NE 05:02:38 31° E 05:05:42 10° SSE visible
13 Dec 8.4 06:35:19 11° WNW 06:35:28 11° WNW 06:36:24 10° W visible
14 Dec 9.7 04:32:41 11° ENE 04:33:55 13° E 04:35:31 10° ESE visible
14 Dec 7.4 06:06:47 25° WNW 06:07:06 25° WNW 06:09:58 10° SW visible
